Regional Weather Roundup
Issued by NWS

Home | Current Version | Previous Version | Text Only | Print | Product List | Glossary On
Versions: 1 2 3 4 5 6 7 8 9 10 11 12 13 14 15 16 17 18 19 20 21 22 23 24 25 26 27 28 29 30 31 32 33 34 35 36 37 38 39 40 41 42 43 44 45 46 47 48 49 50
000
ASUS45 KTFX 280919
RWRMT
MONTANA HOURLY WEATHER ROUNDUP
NATIONAL WEATHER SERVICE GREAT FALLS MT
319 AM MDT THU AUG 28 2014

NOTE: "FAIR" INDICATES FEW OR NO CLOUDS BELOW 12000 FEET WITH NO
SIGNIFICANT WEATHER AND/OR OBSTRUCTIONS TO VISIBILITY.

* THESE STATIONS ARE NOT UNDER NWS QUALITY CONTROL. THEY DO NOT
   REPORT WEATHER SUCH AS PRECIPITATION OR FOG.

MTZ001>007-043-281000-
WEST OF THE DIVIDE
CITY           SKY/WX    TMP DP  RH WIND       PRES   REMARKS
KALISPELL      CLEAR     50  46  86 CALM      29.99S
MISSOULA       CLEAR     57  46  67 CALM      30.07R
BUTTE          CLEAR     48  43  83 CALM      30.20R
MULLAN PASS    CLEAR     61  41  48 SW9       30.17S
* LINCOLN      N/A       45  44  96 NE2        N/A
* LOOKOUT PASS N/A       58  44  60 S2         N/A
* POLSON       N/A       60  43  54 S1         N/A
* RONAN APT    CLEAR     54  45  72 N/A        N/A
* SEELEY LAKE  N/A       44  41  89 N/A        N/A
* THOMP F APT  CLEAR     53  41  64 NE2        N/A
$$

MTZ008-052>055-281000-
SOUTHWEST MONTANA
CITY           SKY/WX    TMP DP  RH WIND       PRES   REMARKS
BOZEMAN        CLEAR     48  45  89 SE8       30.13S
DILLON         CLEAR     52  43  72 S10       30.17S
W YELLOWSTONE  PTCLDY    39  37  93 CALM      30.29S
* THREE FORKS  CLEAR     50  34  54 N/A        N/A
* BOULDER HILL N/A       56  36  47 S9         N/A
* MONIDA PASS  N/A       47  40  77 W1         N/A
* RAYNOLDS PAS N/A       46  34  63 S1G9       N/A
* WHITEHALL    N/A       54  48  80 N5G10      N/A
* WISE RIVER   N/A       46  40  80 SW3        N/A
$$

MTZ009>010-012-014-046-048-049-054-281000-
EAST SLOPES AND CENTRAL MONTANA
CITY           SKY/WX    TMP DP  RH WIND       PRES   REMARKS
CUT BANK       PTCLDY    59  45  60 W6        29.98S
GREAT FALLS    CLEAR     61  46  58 S9        29.99S
HELENA         CLEAR     61  46  58 CALM      30.08R
MALMSTROM AFB  CLEAR     59  48  67 SW9       30.00S
* CONRAD       PTCLDY    55  50  83 N/A        N/A
* EAST GLACIER N/A       64  42  45 W8G21      N/A
* MONARCH      N/A       51  40  66 S8         N/A
* PENDROY      N/A       63  43  48 W5G10      N/A
* ROGERS PASS  N/A       62  40  45 E6G13      N/A
* SAINT MARY   N/A       67  42  40 S7G14      N/A
* SWEET GRASS  N/A       63  45  52 W12        N/A
* WHITE SULPH  N/A       53  45  74 E8G14      N/A
$$

MTZ011-013-016-021-035-040-045-047-050-051-281000-
NORTH CENTRAL MONTANA
CITY           SKY/WX    TMP DP  RH WIND       PRES   REMARKS
HAVRE          CLEAR     57  52  83 SW9       29.91S
LEWISTOWN      CLEAR     54  45  72 S5        30.05R
* CHINOOK      CLEAR     57  54  90 CALM      29.90S
* FORT BENTON  CLEAR     59  48  67 SW5       29.95F
* CHESTER      N/A       54  48  80 N/A        N/A
* DENTON       N/A       55  48  77 S6         N/A
* GEYSER       N/A       54  45  72 SW6        N/A
* JUDITH GAP   N/A       55  47  75 SE6        N/A
* LOMA         N/A       62  50  65 W6         N/A
$$

MTZ017>020-022>027-061-062-281000-
NORTHEAST MONTANA
CITY           SKY/WX    TMP DP  RH WIND       PRES   REMARKS
GLASGOW        CLEAR     59  54  84 E9        29.88F
GLENDIVE       CLEAR     61  59  93 S5        29.95S
JORDAN         CLEAR     55  54  96 CALM      29.93S
SIDNEY         CLEAR     57  55  93 S3        29.92F
WOLF POINT     CLEAR     55  52  90 CALM      29.90S
* BEAVER HILL  N/A       65  59  81 S14        N/A
* CIRCLE       N/A       59  52  78 N/A        N/A
* LINDSAY DVD  N/A       61  57  87 SE2        N/A
* NAVAJO       N/A       58  48  70 SE3        N/A
$$

MTZ028>042-056>058-281000-
SOUTHCENTRAL AND SOUTHEAST MONTANA
CITY           SKY/WX    TMP DP  RH WIND       PRES   REMARKS
BAKER          FAIR      57  57 100 E3        30.00S
BILLINGS       FAIR      63  48  58 SW10      30.04R
LIVINGSTON     CLEAR     52  45  77 CALM      30.12R
MILES CITY     CLEAR     61  55  81 S8        29.95R
* LAUREL APT   CLEAR     55  45  69 N/A        N/A
* ROUNDUP APT  CLEAR     55  48  77 SW7        N/A
* ALZADA       N/A       58  55  90 N/A        N/A
* HYSHAM       N/A       65  45  49 W6         N/A
* LAME DEER    N/A       65  49  56 SW5        N/A
* REED POINT   N/A       52  49  90 W3         N/A
* ROSCOE HILL  N/A       62  32  32 S9         N/A
$$

REGIONAL REPORTS...DAKOTAS
CITY           SKY/WX    TMP DP  RH WIND       PRES   REMARKS
WILLISTON      CLEAR     64  57  78 S6        29.90F
DICKINSON      FOG       57  55  93 S7        29.96S
BEACH          N/A       59  59 100 S9        29.97S
CROSBY         CLEAR     59  59 100 S10       29.89S
TIOGA          PTCLDY    55  55 100 E5        29.95S
WATFORD CITY   PTCLDY    61  57  87 S7        29.90F
BISMARCK       PTCLDY    61  59  93 SE6       29.97F
GRAND FORKS    CLOUDY    61  57  87 S8        30.00F
FARGO          MOCLDY    64  59  84 SE12      30.01F
BUFFALO SD     PTCLDY    59  57  93 W7        29.94F
RAPID CITY     CLOUDY    63  61  93 N6        30.01F
$$

REGIONAL REPORTS...WYOMING/IDAHO/WASHINGTON
CITY           SKY/WX    TMP DP  RH WIND       PRES   REMARKS
GILLETTE       PTCLDY    57  52  83 SE3       30.06S
SHERIDAN       CLEAR     52  46  80 CALM      30.05F
CODY           CLEAR     55  46  72 CALM      30.14S
YELLOWSTONE LA CLEAR     37  36  96 CALM      30.38R
SALMON         CLEAR     50  46  86 CALM      30.15S
MULLAN PASS    CLEAR     61  41  48 SW9       30.17S
SAND POINT     CLEAR     54  54 100 CALM      29.94S
SPOKANE        PTCLDY    66  45  47 S9        29.94R
$$

REGIONAL REPORTS...ALBERTA
CITY           SKY/WX    TMP DP  RH WIND       PRES   REMARKS
CALGARY        PTCLDY    54  48  80 N17G24    29.99R
LETHBRIDGE     MOCLDY    61  48  62 SW13      29.90S
MEDICINE HAT   CLEAR     59  52  78 S8        29.85R
EDMONTON       LGT RAIN  55  52  90 W15G21    29.95S
WATERTON GATE  N/A       64  45  50 SW7        N/A
CARDSTON       N/A       61  46  58 W7         N/A
MILK RIVER     N/A       54  46  74 NW5        N/A
$$

REGIONAL REPORTS...SASKATCHEWAN
CITY           SKY/WX    TMP DP  RH WIND       PRES   REMARKS
SWIFT CURRENT  CLEAR     57  50  78 SE7       29.85F
REGINA         N/A       55  54  96 CALM      29.83R
VAL MARIE      N/A       52  50  93 NE3        N/A
ASSINIBOIA     N/A       57  50  78 SW10       N/A
CORONACH       N/A       52  48  86 SE2        N/A

$$



USA.gov is the U.S. government's official web portal to all federal, state and local government web resources and services.